SCP
0 0 0 0 0 0 0 0 0 0 0 0 0 0 0 0 0 0 0 0 0 0 0 0 0 0 0 0 0 0 0 0
-0 0 0 0 0 0 0 0 0 0 0 0 0 0 0 0 0 0 0 0 0 0 0 0 0 0 0 0 0 0 0 0
0 0 0 0 0 0 0 0 0 0 0 0 0 0 0 0 0 0 0 0 0 0 0 0 0 0 0 0 0 0 0 0
0 0 0 0 0 0 0 0 0 0 0 0 0 0 0 0 0 1 0 0 0 0 0 0 0 0 0 0 0 0 0 0
0 0 0 0 0 0 0 0 0 0 0 0 0 0 0 0 0 0 1 0 0 0 0 0 0 0 0 0 0 0 0 0
0 0 0 0 0 0 0 0 0 0 -0 0 0 0 0 0 0 0 0 1 0 0 0 0 0 0 0 0 0 0 0 0
0 0 0 0 0 0 0 0 0 0 0 0 0 0 0 -0 0 0 0 1 1 1 0 0 0 0 0 0 0 1 1 1
0 0 0 0 0 0 0 0 0 0 0 0 0 -0 -0 -0 0 0 0 0 0 0 1 0 0 0 0 0 0 1 1 1
0 0 0 0 0 0 0 0 0 0 0 0 -0 0 -0 -0 0 0 0 0 0 0 0 0 0 0 0 0 1 1 1 1
0 0 0 0 0 0 0 0 0 0 0 0 0 -0 0 -0 0 0 0 0 0 0 0 1 1 1 1 0 0 1 1 1
0 0 0 0 0 0 0 0 0 0 0 0 0 -0 0 0 0 0 0 0 0 0 0 0 0 0 1 1 0 1 1 1
0 0 0 0 0 0 0 0 0 0 -0 0 0 -0 -0 0 0 0 0 0 0 0 0 0 0 0 0 0 0 0 0 0
0 0 0 0 0 0 0 0 0 0 0 0 0 -0 0 0 0 0 0 0 0 0 0 0 0 0 0 0 0 0 0 0
0 0 0 0 0 0 0 0 0 0 0 0 -0 -0 -0 0 0 0 0 0 0 0 0 0 0 0 0 0 0 0 0 0
0 0 0 0 -0 -0 0 0 0 0 0 0 -0 -0 -0 -0 0 0 0 0 0 0 0 0 0 0 0 0 -0 -0 0 -0
0 0 0 0 0 0 -0 -0 0 0 0 0 -0 -0 -0 -0 0 0 0 0 0 0 0 0 0 0 0 0 0 0 0 0
0 0 0 0 0 -0 -0 -0 -0 -0 0 0 0 0 0 -0 0 0 0 0 0 0 0 0 0 0 0 0 0 0 0 0
0 0 0 0 -0 0 -0 -0 0 0 0 0 0 0 0 0 0 0 0 0 0 0 0 0 0 0 0 0 0 0 0 0
0 0 0 -0 -0 -0 0 0 0 0 -0 -0 -0 0 0 0 0 0 0 0 0 0 0 0 0 0 0 0 0 0 0 0
Wind_Speed_500mb
4 5 2 11 6 3 4 4 4 8 16 15 15 19 28 38 33 57 77 89 103 109 113 104 110 108 103 96 89 84 77 73
11 11 8 6 6 6 6 5 9 11 11 10 21 26 39 47 45 47 66 84 90 101 112 110 105 110 104 97 91 86 83 76
4 4 7 10 7 7 6 7 7 5 12 11 10 17 40 51 61 66 48 78 88 95 107 112 106 106 109 103 95 94 86 80
12 10 8 8 7 9 8 12 5 5 13 20 15 36 49 68 74 80 46 59 73 77 77 92 101 103 109 107 102 94 87 85
17 12 10 9 4 3 5 5 7 5 11 29 49 51 63 64 80 71 46 43 63 70 84 92 99 101 104 108 106 98 91 88
13 14 5 6 5 10 6 5 9 15 33 20 36 28 64 69 67 62 45 42 61 70 83 90 96 97 100 102 105 103 97 91
13 15 6 12 16 16 14 14 15 25 44 29 16 29 43 49 55 48 42 28 56 67 70 72 73 85 86 93 95 97 96 95
8 14 15 10 16 28 27 30 31 25 26 5 37 25 30 42 44 32 32 20 10 53 54 48 66 69 71 74 76 81 88 92
9 7 11 9 22 21 12 14 11 14 14 14 13 11 21 33 35 26 18 16 10 14 31 44 48 65 65 53 60 69 74 79
7 3 8 12 9 15 15 19 15 13 11 19 20 15 20 18 22 19 16 11 12 10 22 27 43 51 45 48 61 58 61 66
2 5 13 11 9 7 4 21 16 17 13 26 29 19 18 11 11 10 11 3 5 10 2 18 28 43 51 43 32 51 53 58
3 6 11 11 6 15 1 17 4 13 19 12 25 13 7 9 10 8 9 5 8 14 18 13 15 19 33 36 23 50 48 49
7 9 15 9 18 1 8 14 45 38 34 25 4 8 26 64 21 22 22 21 14 10 22 13 19 20 42 56 49 39 37 42
2 6 15 5 10 2 18 54 42 45 47 49 33 41 46 64 53 30 33 29 27 27 29 23 16 20 38 42 26 30 13 17
15 12 19 28 32 56 43 48 69 53 57 52 39 38 35 47 74 37 39 37 34 37 35 36 34 28 22 23 23 21 12 15
5 11 30 60 64 69 45 41 55 53 52 46 33 26 28 61 22 48 40 34 38 39 44 42 38 38 35 31 23 21 22 19
11 36 42 32 24 36 50 41 52 42 45 25 11 4 4 33 30 42 47 39 41 41 40 43 49 49 42 34 26 26 30 28
10 16 12 44 47 46 41 42 37 35 21 16 18 13 2 12 19 26 44 45 43 41 43 44 43 41 36 33 30 24 21 27
19 22 33 52 48 25 20 21 12 9 4 6 22 18 32 27 29 33 37 38 43 44 38 36 38 34 33 28 25 28 30 27
Wind_Direction_500mb
308 300 55 314 36 282 168 340 64 247 290 304 290 315 331 312 292 239 220 212 215 218 222 222 222 222 222 222 222 222 221 222
292 5 28 117 247 5 10 278 285 294 281 243 327 333 334 326 315 282 246 215 212 212 218 222 224 224 225 224 223 224 223 224
23 24 261 350 21 21 124 134 198 303 270 231 340 327 324 317 313 311 277 221 210 210 217 222 221 223 226 226 225 225 226 226
251 288 295 187 105 102 104 297 255 207 260 283 320 338 341 326 317 314 292 231 212 206 206 210 219 222 225 227 227 227 228 227
344 0 358 52 345 96 139 81 231 240 262 340 332 337 330 326 324 312 288 230 212 205 205 214 220 222 226 228 229 229 229 228
190 223 174 262 243 279 162 159 250 241 287 309 308 323 322 327 323 318 302 221 216 210 212 217 218 221 225 228 232 231 229 230
244 255 257 236 252 244 232 220 218 281 284 290 300 305 310 323 325 310 310 249 203 204 204 209 214 219 222 227 229 232 232 232
266 256 226 246 269 264 249 253 258 255 266 199 319 319 326 346 330 328 321 321 215 199 201 200 215 219 219 224 232 234 236 235
258 258 308 275 230 232 238 233 214 227 241 309 304 311 346 356 331 337 327 346 278 207 193 205 215 217 219 223 230 237 242 244
256 350 229 242 274 252 249 257 232 260 268 292 278 268 316 359 326 314 343 307 353 247 187 191 213 219 225 229 226 233 241 243
257 232 291 289 293 24 353 288 244 234 232 290 325 281 280 308 300 277 269 33 145 70 211 222 220 216 216 221 242 235 238 239
115 250 257 230 158 343 16 282 255 255 275 307 341 297 310 263 211 260 127 106 234 206 89 126 182 224 220 221 242 221 215 225
229 248 283 266 320 123 175 278 326 322 309 282 236 312 309 334 229 185 137 111 126 139 192 155 119 99 146 152 161 179 179 165
172 217 277 203 357 360 295 305 311 310 308 304 307 296 290 298 286 167 136 122 110 108 104 103 113 134 142 125 82 75 137 128
193 222 275 295 279 302 304 291 302 300 296 297 298 310 287 281 293 138 120 115 109 98 102 106 110 131 149 149 127 120 121 103
329 268 292 297 296 299 317 297 300 297 290 292 261 278 306 319 259 120 106 108 111 105 93 95 106 114 105 117 141 160 139 151
253 281 291 290 298 319 323 316 306 300 287 298 214 299 157 350 17 105 112 108 94 95 93 93 101 99 94 92 102 120 126 144
242 261 286 304 315 322 326 318 318 314 321 253 206 97 115 136 72 78 107 104 98 87 77 73 79 82 84 85 84 104 125 125
251 296 288 298 314 325 346 339 349 12 45 123 102 105 111 124 89 74 62 76 79 75 74 68 74 88 82 80 80 85 87 102
Wind_Speed_850mb
4 5 2 11 6 3 4 4 4 8 16 15 15 19 28 38 33 57 77 89 103 109 113 104 110 108 103 96 89 84 77 73
11 11 8 6 6 6 6 5 9 11 11 10 21 26 39 47 45 47 66 84 90 101 112 110 105 110 104 97 91 86 83 76
4 4 7 10 7 7 6 7 7 5 12 11 10 17 40 51 61 66 48 78 88 95 107 112 106 106 109 103 95 94 86 80
12 10 8 8 7 9 8 12 5 5 13 20 15 36 49 68 74 80 46 59 73 77 77 92 101 103 109 107 102 94 87 85
17 12 10 9 4 3 5 5 7 5 11 29 49 51 63 64 80 71 46 43 63 70 84 92 99 101 104 108 106 98 91 88
13 14 5 6 5 10 6 5 9 15 33 20 36 28 64 69 67 62 45 42 61 70 83 90 96 97 100 102 105 103 97 91
13 15 6 12 16 16 14 14 15 25 44 29 16 29 43 49 55 48 42 28 56 67 70 72 73 85 86 93 95 97 96 95
8 14 15 10 16 28 27 30 31 25 26 5 37 25 30 42 44 32 32 20 10 53 54 48 66 69 71 74 76 81 88 92
9 7 11 9 22 21 12 14 11 14 14 14 13 11 21 33 35 26 18 16 10 14 31 44 48 65 65 53 60 69 74 79
7 3 8 12 9 15 15 19 15 13 11 19 20 15 20 18 22 19 16 11 12 10 22 27 43 51 45 48 61 58 61 66
2 5 13 11 9 7 4 21 16 17 13 26 29 19 18 11 11 10 11 3 5 10 2 18 28 43 51 43 32 51 53 58
3 6 11 11 6 15 1 17 4 13 19 12 25 13 7 9 10 8 9 5 8 14 18 13 15 19 33 36 23 50 48 49
7 9 15 9 18 1 8 14 45 38 34 25 4 8 26 64 21 22 22 21 14 10 22 13 19 20 42 56 49 39 37 42
2 6 15 5 10 2 18 54 42 45 47 49 33 41 46 64 53 30 33 29 27 27 29 23 16 20 38 42 26 30 13 17
15 12 19 28 32 56 43 48 69 53 57 52 39 38 35 47 74 37 39 37 34 37 35 36 34 28 22 23 23 21 12 15
5 11 30 60 64 69 45 41 55 53 52 46 33 26 28 61 22 48 40 34 38 39 44 42 38 38 35 31 23 21 22 19
11 36 42 32 24 36 50 41 52 42 45 25 11 4 4 33 30 42 47 39 41 41 40 43 49 49 42 34 26 26 30 28
10 16 12 44 47 46 41 42 37 35 21 16 18 13 2 12 19 26 44 45 43 41 43 44 43 41 36 33 30 24 21 27
19 22 33 52 48 25 20 21 12 9 4 6 22 18 32 27 29 33 37 38 43 44 38 36 38 34 33 28 25 28 30 27
Wind_Direction_850mb
308 300 55 314 36 282 168 340 64 247 290 304 290 315 331 312 292 239 220 212 215 218 222 222 222 222 222 222 222 222 221 222
292 5 28 117 247 5 10 278 285 294 281 243 327 333 334 326 315 282 246 215 212 212 218 222 224 224 225 224 223 224 223 224
23 24 261 350 21 21 124 134 198 303 270 231 340 327 324 317 313 311 277 221 210 210 217 222 221 223 226 226 225 225 226 226
251 288 295 187 105 102 104 297 255 207 260 283 320 338 341 326 317 314 292 231 212 206 206 210 219 222 225 227 227 227 228 227
344 0 358 52 345 96 139 81 231 240 262 340 332 337 330 326 324 312 288 230 212 205 205 214 220 222 226 228 229 229 229 228
190 223 174 262 243 279 162 159 250 241 287 309 308 323 322 327 323 318 302 221 216 210 212 217 218 221 225 228 232 231 229 230
244 255 257 236 252 244 232 220 218 281 284 290 300 305 310 323 325 310 310 249 203 204 204 209 214 219 222 227 229 232 232 232
266 256 226 246 269 264 249 253 258 255 266 199 319 319 326 346 330 328 321 321 215 199 201 200 215 219 219 224 232 234 236 235
258 258 308 275 230 232 238 233 214 227 241 309 304 311 346 356 331 337 327 346 278 207 193 205 215 217 219 223 230 237 242 244
256 350 229 242 274 252 249 257 232 260 268 292 278 268 316 359 326 314 343 307 353 247 187 191 213 219 225 229 226 233 241 243
257 232 291 289 293 24 353 288 244 234 232 290 325 281 280 308 300 277 269 33 145 70 211 222 220 216 216 221 242 235 238 239
115 250 257 230 158 343 16 282 255 255 275 307 341 297 310 263 211 260 127 106 234 206 89 126 182 224 220 221 242 221 215 225
229 248 283 266 320 123 175 278 326 322 309 282 236 312 309 334 229 185 137 111 126 139 192 155 119 99 146 152 161 179 179 165
172 217 277 203 357 360 295 305 311 310 308 304 307 296 290 298 286 167 136 122 110 108 104 103 113 134 142 125 82 75 137 128
193 222 275 295 279 302 304 291 302 300 296 297 298 310 287 281 293 138 120 115 109 98 102 106 110 131 149 149 127 120 121 103
329 268 292 297 296 299 317 297 300 297 290 292 261 278 306 319 259 120 106 108 111 105 93 95 106 114 105 117 141 160 139 151
253 281 291 290 298 319 323 316 306 300 287 298 214 299 157 350 17 105 112 108 94 95 93 93 101 99 94 92 102 120 126 144
242 261 286 304 315 322 326 318 318 314 321 253 206 97 115 136 72 78 107 104 98 87 77 73 79 82 84 85 84 104 125 125
251 296 288 298 314 325 346 339 349 12 45 123 102 105 111 124 89 74 62 76 79 75 74 68 74 88 82 80 80 85 87 102